Weather History for KHSV - April, 2013

Change the Weather History Date:

Wednesday, April 10, 2013

  Actual Average Record
Temperature  
Mean Temperature 73 °F 60 °F  
Max Temperature 86 °F 72 °F 89 °F (2001)
Min Temperature 60 °F 48 °F 28 °F (1914)
Degree Days  
Heating Degree Days 0 6  
Month to date heating degree days 77 72  
Since 1 July heating degree days 2885 2892  
Cooling Degree Days 8 2  
Month to date cooling degree days 16 11  
Year to date cooling degree days 22 25  
Growing Degree Days 23 (Base 50)    
Moisture  
Dew Point 57 °F    
Average Humidity 60    
Maximum Humidity 84    
Minimum Humidity 35    
Precipitation  
Precipitation 0.00 in 0.15 in 1.53 in (1946)
Month to date precipitation 0.63 1.47  
Year to date precipitation 18.06 16.41  
Snow  
Snow 0.00 in - - ()
Month to date snowfall 0.0  
Since 1 July snowfall 0.7  
Snow Depth 0.00 in    
Sea Level Pressure  
Sea Level Pressure 29.96 in    
Wind  
Wind Speed 9 mph (South)    
Max Wind Speed 16 mph    
Max Gust Speed 22 mph    
Visibility 10 miles    
Events      
T = Trace of Precipitation, MM = Missing Value Source: NWS Daily Summary

Daily Weather History Graph

Daily Weather History Graph

Search for Another Location

Airport or City:

Trip Planner

Search our weather history database for the weather conditions in past years. The results will help you decide how hot, cold, wet, or windy it might be!

Date:

Astronomy

Apr. 10, 2013 Rise Set
Actual Time 6:21 AM CDT 7:15 PM CDT
Civil Twilight 5:56 AM CDT 7:41 PM CDT
Nautical Twilight 5:25 AM CDT 8:11 PM CDT
Astronomical Twilight 4:54 AM CDT 8:43 PM CDT
Moon 6:18 AM CDT (4/10) 7:48 PM CDT (4/10)
Length of Visible Light 13h 45m
Length of Day
12h 53m
New Moon, 0% of the Moon is Illuminated
Apr 10
New Moon
Apr 18
First Quarter
Apr 25
Full
May 2
Last Quarter
May 9
New

Hourly Weather History & Observations

Time (CDT) Temp. Heat Index Dew Point Humidity Pressure Visibility Wind Dir Wind Speed Gust Speed Precip Events Conditions
12:53 AM 66.0 °F - 57.0 °F 73% 30.02 in 10.0 mi South 5.8 mph - N/A   Clear
1:53 AM 64.0 °F - 57.0 °F 78% 30.01 in 10.0 mi South 5.8 mph - N/A   Clear
2:53 AM 66.0 °F - 59.0 °F 78% 30.00 in 10.0 mi South 8.1 mph - N/A   Clear
3:53 AM 66.9 °F - 57.9 °F 73% 29.98 in 10.0 mi South 11.5 mph - N/A   Clear
4:53 AM 64.0 °F - 55.9 °F 75% 29.98 in 10.0 mi South 6.9 mph - N/A   Clear
5:53 AM 63.0 °F - 55.0 °F 75% 29.99 in 10.0 mi Calm Calm - N/A   Partly Cloudy
6:53 AM 61.0 °F - 55.0 °F 81% 30.01 in 10.0 mi ESE 4.6 mph - N/A   Partly Cloudy
7:53 AM 68.0 °F - 57.0 °F 68% 30.05 in 10.0 mi Calm Calm - N/A   Scattered Clouds
8:53 AM 71.1 °F - 57.0 °F 61% 30.06 in 10.0 mi South 6.9 mph - N/A   Scattered Clouds
9:53 AM 75.9 °F - 57.9 °F 54% 30.05 in 10.0 mi SSW 8.1 mph - N/A   Partly Cloudy
10:53 AM 78.1 °F - 57.9 °F 50% 30.05 in 10.0 mi SSW 11.5 mph 19.6 mph N/A   Partly Cloudy
11:53 AM 80.6 °F 80.8 °F 57.2 °F 45% 30.06 in 10.0 mi SW 10.4 mph 16.1 mph N/A   Partly Cloudy
12:53 PM 82.9 °F 82.8 °F 59.0 °F 44% 30.02 in 10.0 mi SSW 9.2 mph - N/A   Partly Cloudy
1:53 PM 84.0 °F 83.5 °F 57.9 °F 41% 30.00 in 10.0 mi SSW 9.2 mph - N/A   Partly Cloudy
2:53 PM 84.9 °F 83.7 °F 55.9 °F 37% 29.96 in 10.0 mi SSE 10.4 mph - N/A   Partly Cloudy
3:53 PM 86.0 °F 84.7 °F 55.9 °F 36% 29.93 in 10.0 mi South 11.5 mph 20.7 mph N/A   Scattered Clouds
4:53 PM 84.9 °F 83.6 °F 55.0 °F 36% 29.90 in 10.0 mi South 11.5 mph - N/A   Partly Cloudy
5:53 PM 84.0 °F 83.0 °F 55.9 °F 38% 29.88 in 10.0 mi South 9.2 mph - N/A   Partly Cloudy
6:53 PM 80.1 °F 80.1 °F 55.0 °F 42% 29.86 in 10.0 mi SSE 12.7 mph - N/A   Mostly Cloudy
7:53 PM 75.9 °F - 57.0 °F 52% 29.83 in 10.0 mi SSE 12.7 mph - N/A   Mostly Cloudy
8:53 PM 73.9 °F - 55.9 °F 53% 29.83 in 10.0 mi SSE 9.2 mph - N/A   Mostly Cloudy
9:53 PM 71.1 °F - 57.0 °F 61% 29.85 in 10.0 mi SSE 6.9 mph - N/A   Overcast
10:53 PM 73.0 °F - 55.9 °F 55% 29.86 in 10.0 mi SSE 10.4 mph - N/A   Overcast
11:53 PM 72.0 °F - 57.0 °F 59% 29.84 in 10.0 mi SSE 11.5 mph - N/A   Overcast